TimeEDT,TemperatureF,Dew PointF,Humidity,Sea Level PressureIn,VisibilityMPH,Wind Direction,Wind SpeedMPH,Gust SpeedMPH,PrecipitationIn,Events,Conditions,WindDirDegrees,DateUTC
12:53 AM,42.1,39.9,92,30.02,10.0,Calm,Calm,-,N/A,,Clear,0,2013-09-25 04:53:00
1:53 AM,41.0,39.0,93,30.01,10.0,Calm,Calm,-,N/A,,Clear,0,2013-09-25 05:53:00
2:53 AM,39.0,37.9,96,30.00,10.0,Calm,Calm,-,N/A,,Clear,0,2013-09-25 06:53:00
3:53 AM,39.0,37.0,93,29.99,10.0,Calm,Calm,-,N/A,,Clear,0,2013-09-25 07:53:00
4:53 AM,37.9,36.0,93,29.99,10.0,Calm,Calm,-,N/A,,Clear,0,2013-09-25 08:53:00
5:53 AM,37.9,37.0,97,30.01,10.0,East,3.5,-,N/A,,Clear,80,2013-09-25 09:53:00
6:15 AM,37.9,37.0,97,30.01,10.0,East,4.6,-,N/A,,Mostly Cloudy,100,2013-09-25 10:15:00
6:53 AM,37.9,37.0,97,30.01,10.0,Calm,Calm,-,N/A,,Mostly Cloudy,0,2013-09-25 10:53:00
7:00 AM,37.9,37.0,97,30.01,10.0,Calm,Calm,-,N/A,,Scattered Clouds,0,2013-09-25 11:00:00
7:53 AM,39.9,37.9,93,30.02,10.0,Calm,Calm,-,N/A,,Scattered Clouds,0,2013-09-25 11:53:00
8:53 AM,44.1,42.1,93,30.03,8.0,Calm,Calm,-,N/A,,Clear,0,2013-09-25 12:53:00
9:34 AM,48.0,44.1,86,30.02,7.0,Calm,Calm,-,N/A,,Partly Cloudy,0,2013-09-25 13:34:00
9:53 AM,50.0,46.0,86,30.02,10.0,Calm,Calm,-,N/A,,Clear,0,2013-09-25 13:53:00
10:53 AM,55.0,46.9,74,30.01,10.0,Variable,4.6,-,N/A,,Clear,0,2013-09-25 14:53:00
11:53 AM,59.0,48.0,67,30.00,10.0,Variable,4.6,-,N/A,,Clear,0,2013-09-25 15:53:00
12:53 PM,63.0,48.0,58,29.99,10.0,West,8.1,-,N/A,,Clear,280,2013-09-25 16:53:00
1:53 PM,64.9,48.9,56,29.96,10.0,Variable,3.5,-,N/A,,Clear,0,2013-09-25 17:53:00
2:53 PM,66.9,50.0,54,29.94,10.0,WNW,8.1,-,N/A,,Clear,290,2013-09-25 18:53:00
3:53 PM,68.0,48.0,49,29.93,10.0,WSW,5.8,-,N/A,,Clear,250,2013-09-25 19:53:00
4:53 PM,66.9,46.9,49,29.93,10.0,WSW,10.4,-,N/A,,Clear,250,2013-09-25 20:53:00
5:53 PM,66.0,46.9,50,29.94,10.0,West,6.9,-,N/A,,Clear,270,2013-09-25 21:53:00
6:53 PM,59.0,50.0,72,29.94,10.0,NW,6.9,-,N/A,,Clear,310,2013-09-25 22:53:00
7:53 PM,55.0,48.9,80,29.96,10.0,NW,3.5,-,N/A,,Clear,320,2013-09-25 23:53:00
8:53 PM,54.0,48.9,83,29.97,10.0,Calm,Calm,-,N/A,,Clear,0,2013-09-26 00:53:00
9:53 PM,52.0,48.0,86,29.99,10.0,Calm,Calm,-,N/A,,Clear,0,2013-09-26 01:53:00
10:53 PM,48.0,46.0,93,30.00,10.0,NE,3.5,-,N/A,,Clear,40,2013-09-26 02:53:00
11:53 PM,46.9,46.0,97,30.00,10.0,Calm,Calm,-,N/A,,Clear,0,2013-09-26 03:53:00